#timestamp,LO_Frequency,Hit,StdDev 
1620543615.5,286046998.8,N
1620543635.4,286046998.8,N
1620543655.2,286046997.1,N
1620543675.0,286046997.8,N
1620543675.9,286046997.8,N
1620543695.8,286046997.7,N
1620543715.6,286046996.0,N
1620543735.4,286046995.4,N
1620543755.3,286046994.9,Y
1620543775.1,286047001.6,P
1620543795.9,286047002.8,N
1620543815.7,286047001.4,N
1620543835.5,286047004.2,N
1620543855.4,286047004.2,N
1620543875.2,286047004.4,N
1620543895.0,286047002.3,N
1620543896.0,286047002.3,N
1620543915.8,286047001.9,N
1620543935.6,286047000.1,N
1620543955.5,286047000.5,N
1620543975.3,286046998.9,N
1620543995.1,286046997.0,N
1620544015.9,286046998.7,N
1620544035.7,286046998.8,N
1620544055.6,286046998.6,N
1620544075.4,286046997.2,N
1620544095.2,286046997.1,N
1620544115.1,286046998.8,N
1620544116.0,286046998.8,N
1620544135.8,286046999.8,N
1620544155.6,286046999.8,N
1620544175.5,286047002.4,N
1620544195.3,286047001.1,N
1620544215.2,286046999.4,N
1620544235.9,286046998.2,N
1620544255.7,286046999.7,N
1620544275.6,286047002.1,N
1620544295.4,286047001.8,N
1620544315.2,286047003.8,N
1620544335.1,286047006.0,N
1620544336.0,286047006.0,N
1620544355.8,286047005.6,N
1620544375.7,286047004.2,N
1620544395.5,286047004.7,N
1620544415.3,286047007.6,N
1620544435.2,286047002.3,N
1620544455.0,286047002.8,N
1620544455.9,286047002.8,N
1620544475.8,286047004.1,N
1620544495.6,286047005.8,N
1620544515.4,286047005.6,N
1620544535.3,286047002.5,N
1620544555.1,286047004.0,N
1620544575.8,286047003.9,N
1620544595.7,286047002.2,N
1620544615.5,286046999.8,N
1620544635.3,286047000.2,N
1620544655.2,286047001.5,N
1620544675.0,286047003.7,N
1620544675.9,286047003.7,N
1620544695.8,286047005.7,N
1620544715.6,286047006.6,N
1620544735.4,286047008.6,Y
1620544755.3,286046999.7,P
1620544775.1,286047001.8,N
1620544795.9,286047005.8,P
1620544815.7,286047002.9,N
1620544835.5,286047007.1,Y
1620544855.4,286047002.7,P
1620544875.2,286047002.6,P
1620544895.0,286047001.3,P
1620544895.9,286047001.3,N
1620544915.8,286047011.9,Y
1620544935.6,286046997.1,P
1620544955.5,286046999.3,N
1620544975.3,286047001.2,N
1620544995.1,286047001.2,N
1620545015.9,286046998.3,N
1620545035.7,286046995.1,N
1620545055.6,286046997.1,N
1620545075.4,286047000.7,N
1620545095.2,286047000.9,N
1620545115.1,286047000.7,N
1620545116.0,286047000.7,N
1620545135.8,286046999.5,N
1620545155.7,286046997.7,N
1620545175.5,286046999.1,N
1620545195.4,286046998.4,N
1620545215.2,286046997.7,N
1620545235.0,286046996.2,N
1620545235.9,286046996.2,N
1620545255.8,286046997.0,N
1620545275.6,286046996.7,N
1620545295.5,286046997.6,N
1620545315.3,286046998.3,N
1620545335.1,286047000.9,N
1620545355.9,286046998.5,N
1620545375.7,286047000.6,N
1620545395.6,286046996.6,N
1620545415.4,286047001.1,N
1620545435.2,286046998.3,N
1620545455.1,286046998.8,N
1620545456.0,286046998.8,N
1620545475.8,286046999.9,N
1620545495.6,286046999.9,N
1620545515.5,286047000.1,N
1620545535.3,286047000.5,N
1620545555.2,286047002.5,N
1620545575.9,286046999.8,N
1620545595.7,286047000.0,N
1620545615.6,286047001.1,N
1620545635.4,286046998.3,N
1620545655.3,286047000.8,N
1620545675.1,286046999.7,N
1620545676.0,286046999.7,N
1620545695.8,286047000.9,N
1620545715.7,286046998.6,N
1620545735.5,286046997.0,N
1620545755.3,286047000.4,N
1620545775.2,286047001.1,N
1620545795.0,286047000.0,N
1620545795.9,286047000.0,N
1620545815.8,286046999.9,N
1620545835.6,286046998.1,N
1620545855.4,286047001.2,N
1620545875.3,286047000.6,N
1620545895.1,286047002.1,N
1620545915.9,286047000.8,N
1620545935.7,286047000.7,N
1620545955.5,286046999.3,N
1620545975.4,286046996.2,Y
1620545995.2,286046998.4,P
1620546015.0,286046998.8,N
1620546016.0,286046998.8,N
1620546035.8,286047000.6,N
1620546055.6,286047001.0,N
1620546075.5,286047002.8,N
1620546095.3,286047001.0,N
1620546115.1,286047001.2,N
1620546135.9,286046998.5,N
1620546155.7,286046999.2,N
1620546175.6,286046999.5,N
1620546195.4,286046999.5,N
1620546215.2,286046996.6,N
1620546235.1,286046997.4,N
1620546236.0,286046997.4,N
1620546255.8,286046996.6,N
1620546275.7,286046993.8,Y
1620546295.5,286046994.9,P
1620546315.3,286046999.2,N
1620546335.2,286046997.3,N
1620546355.0,286046996.9,N
1620546355.9,286046996.9,N
1620546375.7,286046995.0,Y
1620546395.6,286047001.8,P
1620546415.4,286047003.2,N
1620546435.3,286047003.2,N
1620546455.1,286047003.6,N
1620546475.8,286047003.5,N
1620546495.7,286047003.9,N
1620546515.5,286047003.8,N
1620546535.4,286047002.4,N
1620546555.2,286047001.8,N
1620546575.0,286047002.1,N
1620546575.9,286047002.1,N
1620546595.8,286047002.1,N
1620546615.6,286047002.8,N
1620546635.4,286047001.8,N
1620546655.3,286047002.2,N
1620546675.1,286047001.2,N
1620546695.9,286047002.1,N
1620546715.7,286047002.3,N
1620546735.5,286047002.6,N
1620546755.4,286047002.7,N
1620546775.2,286047001.3,N
1620546795.1,286047003.1,N
1620546796.0,286047003.1,N
1620546815.8,286047001.7,N
1620546835.6,286046998.8,N
1620546855.5,286047002.1,N
1620546875.3,286047002.2,N
1620546895.1,286047000.1,N
1620546915.9,286047002.4,N
1620546935.7,286047001.7,N
1620546955.6,286047003.8,Y
1620547005.4,286047001.2,E
1620547015.3,286046998.9,N
1620547035.2,286046999.2,P
1620547055.0,286046997.0,P
1620547055.9,286046997.0,Y
1620547075.8,286046999.1,P
1620547095.6,286047001.2,P
1620547115.4,286047002.7,N
1620547135.3,286046999.7,N
1620547155.1,286047002.8,N
1620547175.9,286047001.1,N
1620547195.7,286047002.3,N
